Weather History for Hebron, NE

Change the Weather History Date:

Thursday, June 6, 2013

  Actual Average Record
Temperature  
Mean Temperature 64 °F -  
Max Temperature 76 °F 82 °F 101 °F (1977)
Min Temperature 52 °F 57 °F 42 °F (1983)
Degree Days  
Heating Degree Days 2    
Growing Degree Days 14 (Base 50)    
Moisture  
Dew Point 47 °F    
Average Humidity 58    
Maximum Humidity 85    
Minimum Humidity 31    
Precipitation  
Precipitation 0.00 in - - ()
Sea Level Pressure  
Sea Level Pressure 30.02 in    
Wind  
Wind Speed 6 mph (NNW)    
Max Wind Speed 14 mph    
Max Gust Speed 20 mph    
Visibility 10 miles    
Events      
Averages and records for this station are not official NWS values.
T = Trace of Precipitation, MM = Missing Value Source: NWS Daily Summary

Daily Weather History Graph

Daily Weather History Graph

Search for Another Location

Airport:

Trip Planner

Search our weather history database for the weather conditions in past years. The results will help you decide how hot, cold, wet, or windy it might be!

Date:

Astronomy

Jun. 06, 2013 Rise Set
Actual Time 6:01 AM CDT 8:57 PM CDT
Civil Twilight 5:28 AM CDT 9:29 PM CDT
Nautical Twilight 4:47 AM CDT 10:10 PM CDT
Astronomical Twilight 4:00 AM CDT 10:58 PM CDT
Moon 4:43 AM CDT (6/6) 7:19 PM CDT (6/6)
Length of Visible Light 16h 00m
Length of Day
14h 55m
Waning Crescent, 3% of the Moon is Illuminated
Jun 6
Waning Crescent
Jun 8
New
Jun 16
First Quarter
Jun 23
Full
Jun 29
Last Quarter

Hourly Weather History & Observations

Time (CDT) Temp. Dew Point Humidity Pressure Visibility Wind Dir Wind Speed Gust Speed Precip Events Conditions
12:15 AM 58.1 °F 48.6 °F 71% 30.06 in 10.0 mi WNW 3.5 mph - N/A   Clear
12:35 AM 56.8 °F 48.6 °F 74% 30.06 in 10.0 mi West 3.5 mph - N/A   Clear
12:55 AM 56.7 °F 48.6 °F 74% 30.06 in 10.0 mi WNW 3.5 mph - N/A   Clear
1:15 AM 55.8 °F 48.6 °F 77% 30.05 in 10.0 mi WNW 4.6 mph - N/A   Clear
1:35 AM 55.6 °F 48.6 °F 77% 30.05 in 10.0 mi NW 4.6 mph - N/A   Clear
1:55 AM 55.0 °F 48.6 °F 79% 30.04 in 10.0 mi NNW 4.6 mph - N/A   Clear
2:15 AM 55.0 °F 48.7 °F 79% 30.03 in 10.0 mi NNW 4.6 mph - N/A   Clear
2:35 AM 54.9 °F 48.6 °F 79% 30.03 in 10.0 mi NW 3.5 mph - N/A   Clear
2:55 AM 55.2 °F 48.4 °F 78% 30.02 in 10.0 mi Calm Calm - N/A   Clear
3:15 AM 55.4 °F 48.2 °F 77% 30.01 in 10.0 mi NW 3.5 mph - N/A   Clear
3:35 AM 54.9 °F 48.4 °F 79% 30.01 in 10.0 mi WNW 4.6 mph - N/A   Clear
3:55 AM 54.7 °F 48.2 °F 79% 30.00 in 10.0 mi WNW 3.5 mph - N/A   Clear
4:15 AM 53.8 °F 48.2 °F 81% 30.01 in 10.0 mi West 3.5 mph - N/A   Clear
4:35 AM 53.6 °F 48.2 °F 82% 30.01 in 10.0 mi West 3.5 mph - N/A   Clear
4:55 AM 53.2 °F 48.2 °F 83% 30.02 in 10.0 mi West 3.5 mph - N/A   Clear
5:15 AM 54.0 °F 48.6 °F 82% 30.03 in 10.0 mi WSW 4.6 mph - N/A   Clear
5:35 AM 54.7 °F 48.7 °F 80% 30.02 in 10.0 mi WNW 5.8 mph - N/A   Clear
5:55 AM 53.2 °F 48.4 °F 84% 30.03 in 10.0 mi West 4.6 mph - N/A   Clear
6:15 AM 52.7 °F 48.2 °F 85% 30.03 in 10.0 mi West 4.6 mph - N/A   Clear
6:35 AM 52.7 °F 48.4 °F 85% 30.03 in 10.0 mi West 4.6 mph - N/A   Clear
6:55 AM 54.3 °F 49.3 °F 83% 30.04 in 10.0 mi West 4.6 mph - N/A   Clear
7:15 AM 55.9 °F 49.8 °F 80% 30.04 in 10.0 mi WNW 5.8 mph - N/A   Clear
7:35 AM 57.2 °F 50.5 °F 78% 30.05 in 10.0 mi WNW 6.9 mph - N/A   Clear
7:55 AM 58.6 °F 50.9 °F 75% 30.04 in 10.0 mi NW 8.1 mph - N/A   Clear
8:15 AM 59.9 °F 51.8 °F 75% 30.04 in 10.0 mi NNW 9.2 mph - N/A   Clear
8:35 AM 61.2 °F 52.0 °F 72% 30.03 in 10.0 mi NNW 11.5 mph - N/A   Clear
8:55 AM 62.6 °F 52.5 °F 70% 30.03 in 10.0 mi NNW 9.2 mph - N/A   Clear
9:15 AM 63.7 °F 53.1 °F 68% 30.03 in 10.0 mi NNW 10.4 mph - N/A   Clear
9:35 AM 65.3 °F 52.9 °F 64% 30.03 in 10.0 mi North 12.7 mph 17.3 mph N/A   Clear
9:55 AM 66.6 °F 52.3 °F 60% 30.03 in 10.0 mi North 10.4 mph 17.3 mph N/A   Clear
10:15 AM 67.3 °F 51.3 °F 56% 30.03 in 10.0 mi North 9.2 mph - N/A   Scattered Clouds
10:35 AM 69.1 °F 52.0 °F 54% 30.03 in 10.0 mi North 13.8 mph 19.6 mph N/A   Scattered Clouds
10:55 AM 68.9 °F 51.1 °F 53% 30.03 in 10.0 mi NNW 11.5 mph - N/A   Scattered Clouds
11:15 AM 69.4 °F 50.7 °F 51% 30.03 in 10.0 mi North 10.4 mph - N/A   Mostly Cloudy
11:35 AM 70.7 °F 50.4 °F 48% 30.03 in 10.0 mi NNW 10.4 mph 19.6 mph N/A   Mostly Cloudy
11:55 AM 71.2 °F 49.3 °F 46% 30.03 in 10.0 mi North 12.7 mph 16.1 mph N/A   Scattered Clouds
12:15 PM 71.6 °F 46.0 °F 40% 30.03 in 10.0 mi North 11.5 mph 17.3 mph N/A   Scattered Clouds
12:35 PM 70.9 °F 47.1 °F 43% 30.03 in 10.0 mi NNW 9.2 mph - N/A   Mostly Cloudy
12:55 PM 72.5 °F 46.4 °F 39% 30.03 in 10.0 mi NNW 9.2 mph - N/A   Scattered Clouds
1:15 PM 72.5 °F 45.9 °F 39% 30.03 in 10.0 mi North 10.4 mph - N/A   Mostly Cloudy
1:35 PM 72.9 °F 45.7 °F 38% 30.02 in 10.0 mi NNW 10.4 mph - N/A   Mostly Cloudy
1:55 PM 72.9 °F 46.0 °F 38% 30.01 in 10.0 mi North 11.5 mph - N/A   Mostly Cloudy
2:15 PM 73.8 °F 44.8 °F 35% 30.01 in 10.0 mi NNW 6.9 mph 16.1 mph N/A   Scattered Clouds
2:35 PM 73.8 °F 43.9 °F 34% 30.01 in 10.0 mi NW 10.4 mph - N/A   Scattered Clouds
2:55 PM 73.6 °F 45.0 °F 36% 30.00 in 10.0 mi North 9.2 mph - N/A   Scattered Clouds
3:15 PM 74.8 °F 43.3 °F 32% 30.00 in 10.0 mi North 9.2 mph - N/A   Mostly Cloudy
3:35 PM 74.5 °F 43.2 °F 33% 30.00 in 10.0 mi North 11.5 mph - N/A   Mostly Cloudy
3:55 PM 75.6 °F 45.3 °F 34% 30.00 in 10.0 mi North 11.5 mph - N/A   Scattered Clouds
4:15 PM 75.6 °F 43.2 °F 31% 29.99 in 10.0 mi North 11.5 mph 19.6 mph N/A   Mostly Cloudy
4:35 PM 75.4 °F 42.4 °F 31% 29.99 in 10.0 mi NNW 9.2 mph - N/A   Mostly Cloudy
4:55 PM 75.2 °F 43.3 °F 32% 29.99 in 10.0 mi North 10.4 mph - N/A   Scattered Clouds
5:15 PM 74.7 °F 42.6 °F 32% 29.99 in 10.0 mi NNE 6.9 mph - N/A   Mostly Cloudy
5:35 PM 74.7 °F 43.9 °F 33% 29.99 in 10.0 mi North 8.1 mph - N/A   Mostly Cloudy
5:55 PM 73.6 °F 43.0 °F 33% 29.99 in 10.0 mi North 5.8 mph - N/A   Mostly Cloudy
6:15 PM 73.8 °F 43.3 °F 34% 29.98 in 10.0 mi North 9.2 mph - N/A   Mostly Cloudy
6:35 PM 74.5 °F 42.1 °F 31% 29.98 in 10.0 mi North 9.2 mph - N/A   Mostly Cloudy
6:55 PM 73.6 °F 42.8 °F 33% 29.98 in 10.0 mi NNE 10.4 mph - N/A   Mostly Cloudy
7:15 PM 72.5 °F 42.3 °F 34% 29.98 in 10.0 mi NNE 8.1 mph - N/A   Scattered Clouds
7:35 PM 72.7 °F 43.7 °F 35% 29.98 in 10.0 mi NNE 9.2 mph - N/A   Scattered Clouds
7:55 PM 72.5 °F 43.2 °F 35% 29.99 in 10.0 mi NNE 6.9 mph - N/A   Scattered Clouds
8:15 PM 70.7 °F 45.7 °F 41% 29.99 in 10.0 mi NE 8.1 mph - N/A   Clear
8:35 PM 69.3 °F 45.9 °F 43% 30.00 in 10.0 mi NE 5.8 mph - N/A   Clear
8:55 PM 67.1 °F 46.6 °F 48% 30.00 in 10.0 mi NE 4.6 mph - N/A   Clear
9:15 PM 65.5 °F 46.9 °F 51% 30.00 in 10.0 mi NE 3.5 mph - N/A   Clear
9:35 PM 64.4 °F 47.5 °F 54% 30.00 in 10.0 mi Calm Calm - N/A   Clear
9:55 PM 60.1 °F 49.1 °F 67% 30.01 in 10.0 mi Calm Calm - N/A   Clear
10:15 PM 59.5 °F 48.7 °F 67% 30.02 in 10.0 mi Calm Calm - N/A   Clear
10:35 PM 59.2 °F 48.7 °F 68% 30.03 in 10.0 mi Calm Calm - N/A   Clear
10:55 PM 59.9 °F 48.0 °F 65% 30.03 in 10.0 mi Calm Calm - N/A   Clear
11:15 PM 59.2 °F 48.0 °F 66% 30.03 in 10.0 mi Calm Calm - N/A   Clear
11:35 PM 56.8 °F 48.7 °F 74% 30.04 in 10.0 mi Calm Calm - N/A   Clear
11:55 PM 55.6 °F 48.6 °F 77% 30.04 in 10.0 mi Calm Calm - N/A   Clear